Regional Weather Roundup
Issued by NWS Charleston, SC

Current Version | Previous Version | Text Only | Print | Product List | Glossary Off
Versions: 1 2 3 4 5 6 7 8 9 10 11 12 13 14 15 16 17 18 19 20 21 22 23 24 25 26 27 28 29 30 31 32 33 34 35 36 37 38 39 40 41 42 43 44 45 46 47 48 49 50

000
ASUS42 KCHS 312211
RWRCHS

REGIONAL WEATHER ROUNDUP
NATIONAL WEATHER SERVICE CHARLESTON SC
500 PM EST SAT JAN 31 2015

NOTE: "FAIR" INDICATES FEW OR NO CLOUDS BELOW 12,000 FEET WITH NO
SIGNIFICANT WEATHER AND/OR OBSTRUCTIONS TO VISIBILITY.

NOT ALL STATIONS ARE QUALITY CONTROLLED BY THE NATIONAL
WEATHER SERVICE. USE DATA WITH CAUTION...ESPECIALLY
DEWPOINT OBSERVATIONS.

SCZ027-030-031-034>040-042>050-312300-
...SOUTHEAST SOUTH CAROLINA...

CITY           SKY/WX    TMP DP  RH WIND       PRES   REMARKS
N CHARLESTON   PTCLDY    50  24  36 S5        30.34S
WATERFRONT PRK   N/A     48 N/A N/A SE7         N/A
MOUNT PLEASANT FAIR      48  27  43 CALM      30.34S
PINOPOLIS        N/A     61  19  20 MISG      30.25F
MONCKS CORNER  FAIR      52  16  24 NE5       30.33F
SUMMERVILLE    FAIR      54  16  22 CALM      30.33F
BEAUFORT MCAS  CLEAR     52  28  39 S8        30.35R
BEAUFORT ARPT  FAIR      50  30  46 S3        30.35R
HILTON HEAD IS CLEAR     48  27  43 CALM      30.37S
WALTERBORO     CLEAR     54   0  11 CALM      30.34S
ALLENDALE      FAIR      54  14  20 CALM      30.32S

...SOUTHERN MIDLANDS AND PEE DEE...

CITY           SKY/WX    TMP DP  RH WIND       PRES   REMARKS
GEORGETOWN     NOT AVBL
KINGSTREE      NOT AVBL
ORANGEBURG     CLEAR     53  11  18 CALM      30.32F
BARNWELL       FAIR      54  18  24 CALM      30.33R
AIKEN          FAIR      54  18  24 CALM      30.34S
MANNING        FAIR      52  14  22 CALM      30.33F
COLUMBIA       PTCLDY    54  14  20 CALM      30.32R
SUMTER         CLEAR     53   9  17 CALM      30.30F
FLORENCE       CLEAR     51  11  20 W7        30.32S
MYRTLE BEACH   CLEAR     46  21  36 S10       30.35F
N MYRTLE BEACH CLEAR     51   7  16 N3        30.32F

$$

GAZ063-065-086>088-099>101-113>116-118-119-134>141-150-312300-
...SOUTHEAST GEORGIA...

CITY           SKY/WX    TMP DP  RH WIND       PRES   REMARKS
SAVANNAH ARPT  MOSUNNY   51  16  24 E8        30.35S
HUNTER AAF     SUNNY     51  23  34 E7        30.33S
FORT STEWART   SUNNY     54  23  30 E10       30.32S
STATESBORO     SUNNY     55  19  24 S3        30.32S
SYLVANIA       CLEAR     55  20  25 CALM      30.33S
CLAXTON        FAIR      55  27  33 SE5       30.32S

...CSRA...CENTRAL AND FAR SOUTHEAST GEORGIA...

CITY           SKY/WX    TMP DP  RH WIND       PRES   REMARKS
THOMSON        PTSUNNY   56  23  28 SW3       30.34S
AUGUSTA-BUSH   SUNNY     55  14  19 S5        30.32S
AUGUSTA-DANIEL SUNNY     55  12  18 S5        30.31S
SWAINSBORO     FAIR     N/A N/A N/A S5        30.32S
VIDALIA        SUNNY     59  23  25 SE5       30.31S
EASTMAN        FAIR      59  22  23 SE5       30.32F
HAZLEHURST     FAIR      59  24  26 S3        30.30S
ALMA           SUNNY     59  23  25 SE3       30.30F
WAYCROSS       SUNNY     62  34  34 S6        30.31S
JESUP          FAIR      59  30  33 SE6       30.33R
BAXLEY         FAIR      59  21  23 SE5       30.31R
BRUNSWICK      SUNNY     52  32  46 E8        30.35S
SAINT SIMONS   SUNNY     51  32  48 E10       30.35S

$$

SCZ027-028-034-036>038-045-046-048>050-GAZ119-141-312300-
...LAKE AND SUPPLEMENTAL COASTAL OBSERVATIONS...

STATION/POSITION TIME  TEMP    WIND        PRES    WAVE   SWELL
                       AIR SEA DIR/SP/G            HT/PER HT/PER/DIR
                 (UTC) (F)     (DEG/KT/KT) (MB)    (FT/S) (FT/S/D)
UPR LAKE MARION  NOT AVBL
WINYAH BAY       2045   45     100/  5     1027.0
LAKE MURRAY      2100   49     110/  3/  4 1025.7F
ACE BASIN NERRS  NOT AVBL
FORT PULASKI     2100   48 52   90/  8/  9 1028.5R
SAPELO ISLAND    2100   52      60/  7     1028.0S

$$

ANZ835-935-AMZ111-154-330-350-352-354-370-450-454-472-312300-
...C-MAN AND BUOY OBSERVATIONS...

STATION/POSITION TIME  TEMP    WIND        PRES    WAVE   SWELL
                       AIR SEA DIR/SP/G            HT/PER HT/PER/DIR
                 (UTC) (F)     (DEG/KT/KT) (MB)    (FT/S) (FT/S/D)
BUOY 41004       2150   49 67   50/ 10/ 14 1027.1F   4/ 7   3/ 7
BUOY 41008       2150   51 54   70/ 10/ 12 1027.3F   4/ 6   3/ 60/ 6
FOLLY BEACH CMAN 2200   47     160/  3/  4 1028.1F
CAPERS NEARSHORE 2100   48     170/  4/  6   N/A
FRIPP NEARSHORE  2100   48     100/  6/ 10 1026.9F


STATION/POSITION TIME  TEMP    WIND        PRES    WAVE   SWELL
                       AIR SEA DIR/SP/G            HT/PER HT/PER/DIR
                 (UTC) (F)     (DEG/KT/KT) (MB)    (FT/S) (FT/S/D)
5E ST. MARYS GA  2121      56                N/A     4/ 7
FRYING PAN BUOY  2150   44 64  290/  4/  6 1028.3R   4/10   3/ 70/10
BUOY 41025       2150   40 70  310/ 16/ 19 1025.7S   4/ 8   3/ 20/ 8
CAPE LOOKOUT NC  2100   42     220/  4/  6 1026.5S
BUOY 41002       2150   53 69  330/ 19/ 25 1025.5R   9/11   5/ 10/11
BUOY 41010       2120   62 73   30/ 12/ 16 1025.4R
ST AUGUSTINE FL  2200   56      20/ 15/ 16 1026.7F


$$


USA.gov is the U.S. government's official web portal to all federal, state and local government web resources and services.